Flag for Norway Weather past 2 weeks in Brønnøysund, Norway

Now
48 °F

Broken clouds.


Feels Like: 46 °F
Forecast: 43 / 48 °F
Wind: 5 mph from South

Location: Bronnoysund / Bronnoy

Current Time: May 26, 2015 at 12:15:07 PM

Latest Report: May 26, 2015 at 11:50 AM


Visibility: N/A

Pressure: 29.83 "Hg

Humidity: 82%

Dew point: 43 °F

Location of BrønnøysundLocation

Historic Weather in Brønnøysund — Graph

°F

Brønnøysund temperature yesterday

Maximum temperature yesterday: 48 °F (at 9:20 AM)
Minimum temperature yesterday: 43 °F (at 5:20 AM)
Average temperature yesterday: 46 °F

Past Weeks' High & Low Weather Summary

 TemperatureHumidityPressure
High59 °F (May 19, 12:20 PM)100% (May 12, 1:20 PM)29.98 "Hg (May 12, 1:20 PM)
Low36 °F (May 14, 6:20 AM)35% (May 18, 6:50 PM)29.53 "Hg (May 12, 4:50 AM)
Average46 °F72%29.74 "Hg
* Reported May 11 10:20 AM — May 26 10:50 AM, Brønnøysund, Weather by CustomWeather, © 2015

Note: Actual official high and low records may vary slightly from our data, if they occured in-between our weather recording intervals... More about our weather records

Advertising

Brønnøysund weather history for previous 24 hours

 ConditionsComfort  
Time TempWeatherWind HumidityBarometerVisibility
10:50 AM
Tue, May 26
46 °FBroken clouds.7 mph87%29.83 "HgN/A
10:20 AM46 °FBroken clouds.6 mph82%29.83 "HgN/A
9:50 AM48 °FBroken clouds.8 mph82%29.83 "HgN/A
9:20 AM48 °FBroken clouds.7 mph82%29.83 "HgN/A
8:50 AM46 °FBroken clouds.7 mph82%29.83 "HgN/A
8:20 AM46 °FBroken clouds.7 mph82%29.83 "HgN/A
7:50 AM46 °FBroken clouds.7 mph87%29.83 "HgN/A
7:20 AM46 °FBroken clouds.7 mph87%29.83 "HgN/A
6:50 AM45 °FScattered showers. Broken clouds.7 mph100%29.80 "HgN/A
6:20 AM45 °FDrizzle. Broken clouds.3 mph93%29.80 "HgN/A
5:50 AM45 °FScattered showers. Broken clouds.2 mph100%29.80 "HgN/A
5:20 AM45 °FScattered showers. Broken clouds.2 mph100%29.80 "HgN/A
4:50 AM45 °FMore clouds than sun.2 mph93%29.83 "HgN/A
4:20 AM45 °FOvercast.1 mph93%29.83 "HgN/A
3:50 AM45 °FMostly cloudy.1 mph93%29.83 "HgN/A
3:20 AM45 °FPartly cloudy.1 mph93%29.83 "HgN/A
2:50 AM45 °FMostly cloudy.2 mph93%29.83 "HgN/A
2:20 AM45 °FOvercast.3 mph93%29.83 "HgN/A
1:50 AM45 °FMostly cloudy.3 mph93%29.83 "HgN/A
1:20 AM45 °FMostly cloudy.3 mph100%29.83 "HgN/A
12:50 AM45 °FMostly cloudy.2 mph93%29.83 "HgN/A
12:20 AM46 °FMostly cloudy.1 mph93%29.83 "HgN/A
11:50 PM
Mon, May 25
46 °FMostly cloudy.2 mph93%29.83 "HgN/A
11:20 PM46 °FPartly sunny.3 mph93%29.83 "HgN/A
10:50 PM45 °FPartly sunny.3 mph100%29.83 "HgN/A
10:20 PM46 °FPartly sunny.5 mph93%29.83 "HgN/A
9:50 PM46 °FPartly sunny.6 mph93%29.83 "HgN/A
9:20 PM46 °FPartly sunny.6 mph93%29.83 "HgN/A
8:50 PM46 °FPartly sunny.5 mph93%29.83 "HgN/A
8:20 PM46 °FPartly sunny.6 mph93%29.80 "HgN/A
7:50 PM46 °FPartly sunny.8 mph93%29.80 "HgN/A
7:20 PM46 °FPartly sunny.7 mph93%29.80 "HgN/A
6:50 PM46 °FPartly sunny.9 mph93%29.80 "HgN/A
6:20 PM48 °FBroken clouds.8 mph87%29.80 "HgN/A
5:50 PM48 °FBroken clouds.7 mph87%29.80 "HgN/A
4:50 PM48 °FBroken clouds.7 mph87%29.80 "HgN/A
4:20 PM48 °FBroken clouds.8 mph87%29.80 "HgN/A
3:50 PM48 °FLight rain. Broken clouds.7 mph87%29.80 "HgN/A
3:20 PM48 °FLight rain. Broken clouds.6 mph87%29.80 "HgN/A
2:50 PM46 °FLight rain. Broken clouds.6 mph93%29.80 "HgN/A
2:20 PM46 °FLight rain. Broken clouds.5 mph87%29.77 "HgN/A
1:50 PM46 °FLight rain. Broken clouds.3 mph87%29.77 "HgN/A
1:20 PM48 °FLight rain. Broken clouds.3 mph82%29.77 "HgN/A
12:50 PM46 °FLight rain. Broken clouds.3 mph93%29.77 "HgN/A
12:20 PM46 °FLight rain. Broken clouds.6 mph87%29.77 "HgN/A
Weather by CustomWeather, © 2015

See weather overviewHow to use our weather pages